EW7001 Weather Reports


time (UTC)temp
F
wind
direction
speed
knots
gust
knots
rain 1hr
in
rain 24hr
in
rain mn
in
humidity
%
barometer
mb
20260906220058 95 207 10.4 24.3 2.25 4.33 3.74 11 999.9
20260906214551 95 210 10.4 26.1 1.87 3.67 3.08 11 1000.0
20260906213054 95 227 8.7 25.2 1.85 3.33 2.74 12 1000.3
20260906211545 95 223 14.8 22.6 1.74 3.04 2.45 12 1000.5
20260906210043 94 150 8.7 18.2 0.84 2.02 1.43 14 1000.5
20260906204552 95 219 13.9 20.0 0.80 1.78 1.19 15 1000.6
20260906203033 92 178 5.2 15.6 0.53 1.48 0.89 18 1000.9
20260906201530 92 172 9.6 17.4 0.46 1.30 0.71 19 1001.2
20260906200028 92 218 7.0 25.2 0.40 1.18 0.59 20 1001.5
20260906194520 90 187 7.8 15.6 0.24 0.98 0.39 21 1001.8
20260906193017 90 152 6.1 13.0 0.21 0.95 0.36 23 1002.1
20260906191514 90 243 1.7 14.8 0.15 0.84 0.25 23 1002.3
20260906190011 89 166 7.0 14.8 0.12 0.78 0.19 23 1002.6
20260906184607 88 225 6.1 17.4 0.13 0.74 0.15 24 1002.7
20260906183034 88 188 10.4 14.8 0.13 0.74 0.15 25 1003.0
20260906181539 87 243 4.3 11.3 0.10 0.69 0.10 26 1003.3
20260906180106 86 181 4.3 13.9 0.07 0.66 0.07 29 1003.5
20260906174551 85 218 7.8 13.0 0.02 0.61 0.02 30 1003.9
20260906173021 84 222 4.3 18.2 0.02 0.61 0.02 31 1004.1
20260906171513 83 211 8.7 12.2 0.00 0.59 0.00 33 1004.3
20260906170008 82 193 4.3 12.2 0.05 0.59 0.00 35 1004.4
20260906164506 80 226 5.2 9.6 0.05 0.59 0.59 40 1004.6
20260906163008 79 237 5.2 9.6 0.06 0.59 0.59 41 1004.8
20260906161506 78 152 6.1 11.3 0.18 0.56 0.56 47 1004.8
20260906160036 77 195 5.2 9.6 0.22 0.54 0.54 48 1004.9
20260906154535 76 192 5.2 8.7 0.26 0.54 0.54 53 1005.0
20260906153041 75 203 7.0 12.2 0.30 0.53 0.53 56 1005.0
20260906151532 73 166 7.8 13.9 0.24 0.39 0.39 59 1005.0
20260906150032 71 207 7.8 12.2 0.17 0.32 0.32 62 1005.1
20260906144529 70 168 7.8 13.0 0.17 0.28 0.28 64 1005.0
20260906143059 68 185 7.8 13.0 0.14 0.23 0.23 68 1005.1
20260906141559 67 192 7.8 12.2 0.08 0.15 0.15 71 1005.0
20260906140028 67 195 7.8 12.2 0.08 0.15 0.15 70 1005.0
20260906134526 66 208 7.0 11.3 0.04 0.11 0.11 72 1005.1
20260906133023 65 135 2.6 7.8 0.02 0.09 0.09 74 1005.0
20260906131523 63 149 1.7 5.2 0.00 0.07 0.07 77 1005.2
20260906130022 63 190 1.7 4.3 0.05 0.07 0.07 76 1005.0
20260906124521 63 183 2.6 8.7 0.05 0.07 0.07 76 1004.9
20260906123051 63 184 6.1 10.4 0.05 0.07 0.07 75 1004.8
20260906121549 63 181 7.8 12.2 0.05 0.07 0.07 75 1004.8
20260906120045 63 201 7.0 10.4 0.00 0.02 0.02 75 1004.8
20260906114548 63 194 6.1 9.6 0.00 0.02 0.02 74 1004.8
20260906113043 63 184 1.7 6.1 0.00 0.02 0.02 75 1004.9
20260906111600 63 163 5.2 9.6 0.00 0.02 0.02 73 1005.0
20260906110013 63 206 4.3 8.7 0.00 0.02 0.02 72 1004.9
20260906104517 63 155 1.7 5.2 0.00 0.02 0.02 71 1005.0
20260906103008 63 300 0.9 1.7 0.00 0.02 0.02 70 1005.1
20260906101516 64 254 0.9 4.3 0.00 0.02 0.02 68 1005.1
20260906100004 64 156 2.6 5.2 0.00 0.02 0.02 71 1005.0
20260906094504 62 114 2.6 4.3 0.00 0.02 0.02 72 1004.8
20260906093103 62 148 0.9 5.2 0.00 0.02 0.02 68 1004.9
20260906091558 61 46 0.0 1.7 0.00 0.02 0.02 64 1004.5
20260906090057 62 206 0.9 2.6 0.00 0.02 0.02 61 1004.5
20260906084553 63 331 0.9 1.7 0.00 0.02 0.02 59 1004.4
20260906083053 64 269 0.9 2.6 0.00 0.02 0.02 59 1004.4
20260906081549 65 318 0.9 2.6 0.00 0.02 0.02 59 1004.6
20260906080049 65 23 0.9 2.6 0.00 0.02 0.02 58 1004.5
20260906074548 64 336 1.7 4.3 0.00 0.02 0.02 56 1004.5
20260906073044 66 310 1.7 3.5 0.00 0.02 0.02 58 1004.7
20260906071545 67 89 0.0 4.3 0.00 0.02 0.02 56 1004.7
20260906070042 66 124 0.0 2.6 0.00 0.02 0.02 53 1004.8
20260906064544 66 1 0.9 1.7 0.00 0.02 0.02 49 1005.0
20260906063014 67 124 0.9 5.2 0.00 0.02 0.02 49 1005.3
20260906061510 62 165 0.0 1.7 0.00 0.02 0.02 51 1005.6
20260906060010 62 105 0.0 1.7 0.00 0.02 0.02 50 1005.5
20260906054506 62 135 0.0 1.7 0.00 0.02 0.02 49 1005.6
20260906053001 64 135 0.0 2.6 0.00 0.02 0.02 47 1005.4
20260906051611 65 178 0.0 1.7 0.00 0.02 0.02 48 1005.4
20260906050057 66 314 0.9 2.6 0.00 0.02 0.02 48 1005.4
20260906044526 65 46 0.9 1.7 0.00 0.02 0.02 46 1005.4
20260906043023 66 324 0.0 1.7 0.00 0.02 0.02 43 1005.4
20260906041518 67 140 1.7 4.3 0.00 0.02 0.02 43 1005.5
20260906040023 69 89 0.0 3.5 0.00 0.02 0.02 39 1005.3
20260906034514 73 1 0.0 2.6 0.00 0.02 0.02 38 1005.3
20260906033032 72 1 1.7 4.3 0.00 0.02 0.02 38 1005.2
20260906031509 73 63 0.9 4.3 0.00 0.02 0.02 36 1005.4
20260906030001 74 314 0.0 1.7 0.00 0.02 0.02 34 1005.1
20260906024613 75 340 0.9 2.6 0.00 0.02 0.02 32 1004.8
20260906023103 77 295 0.9 5.2 0.00 0.02 0.02 30 1004.6
20260906021552 78 46 0.9 6.1 0.00 0.02 0.02 29 1004.4
20260906020053 78 30 1.7 4.3 0.00 0.02 0.02 26 1004.3
20260906014551 80 1 0.9 4.3 0.00 0.06 0.02 25 1004.0
20260906013051 81 347 1.7 6.1 0.00 0.06 0.02 24 1003.9
20260906011546 83 32 1.7 4.3 0.00 0.06 0.02 23 1003.6
20260906010046 84 28 2.6 7.8 0.00 0.06 0.02 22 1003.8
20260906004546 86 25 2.6 7.0 0.00 0.71 0.02 21 1003.6
20260906003045 86 352 2.6 7.0 0.00 0.71 0.02 21 1003.7
20260906001542 87 81 2.6 7.0 0.02 0.71 0.02 21 1003.6
20260906000042 87 15 1.7 7.8 0.02 0.71 0.02 20 1003.5
20260905234541 89 340 3.5 10.4 0.02 1.06 0.02 19 1003.3
20260905233049 90 37 4.3 15.6 0.02 1.06 0.02 19 1003.4
20260905231537 89 241 5.2 13.0 0.00 1.04 0.00 19 1003.1
20260905230034 90 47 3.5 7.0 0.00 1.04 0.00 18 1003.3
20260905224604 89 46 0.9 6.1 0.00 2.90 0.00 19 1003.3
20260905223025 89 79 3.5 10.4 0.00 2.90 0.00 19 1003.4
20260905221555 89 35 1.7 7.0 0.00 2.90 0.00 20 1003.5